sat.trackr.live / text

‹ back to catalog

USA 149 (DSP 20)

NORAD 26356 · 2000-024A

PAYLOAD ACTIVE UNKNOWN

§ Identity

Operator
Country
US
Launch date
2000-05-08
Launch site
AFETR
Launch vehicle
Mass (kg)
RCS (m²)

Purposes: comms

External: N2YO · Heavens-Above · Gunter

§ Orbital elements

Epoch: 2026-09-14T16:09:10.204992Z

Period
1,451.64 min
Inclination
13.2653°
Eccentricity
0.0012077
Mean motion
0.99198115 rev/d
Perigee alt
36,039.0 km
Apogee alt
36,141.6 km
Semi-major
42,468.4 km
B*
0.0000e+0
RAAN
11.2731°
Arg perigee
39.5235°
Mean anomaly
319.6337°
Rev number
3,381

§ Raw data

USA 149 (DSP 20)1 26356U 00024A   26257.67303478 -.00000313  00000+0  00000+0 0  99942 26356  13.2653  11.2731 0012077  39.5235 319.6337  0.99198115 33813

JSON: /api/v1/satellites/26356 · /tle

For live sub-satellite position, see the globe view (requires WebGL).

§ Visibility from observer

Set your observer location to see the next 7 days of passes ≥ 10°. The values pass through the URL so the page stays shareable.

No JS? Fill the form by hand. The geolocation button needs JavaScript.